Location: Chuathbaluk
(61.5726°N, 159.2454°W)
Time: 22:12:21
(UTC+00:00)

Max Valier Satellite - Pass Details

Date: 26 January 2021
Orbit: 488 x 504 km, 97.3° (Epoch: 25 February)

Event Time Altitude Azimuth Distance (km) Brightness Sun altitude
Exits shadow 05:45:06 13° 1° (N) 1,522 ? -22.9°
Drops below altitude 10° 05:45:39 10° 356° (N) 1,731 ? -23.0°
Sets 05:47:52 0° 347° (NNW) 2,619 ? -23.3°
